Terminal Aerodrome Forecast
Issued by NWS Chicago, IL

Home | Current Version | Previous Version | Graphics & Text | Print | Product List | Glossary On
Versions: 1 2 3 4 5 6 7 8 9 10 11 12 13 14 15 16 17 18 19 20 21 22 23 24 25 26 27 28 29 30 31 32 33
000
FTUS43 KLOT 121100
TAFRFD
TAF
KRFD 121124Z 1212/1312 36006KT P6SM SCT035 BKN120
     FM121400 02012KT P6SM VCSH SCT030 BKN070
     FM122100 35012KT 6SM -RA SCT015 OVC030
     FM130600 33010KT P6SM SCT012 BKN035=

USA.gov is the U.S. government's official web portal to all federal, state and local government web resources and services.